Vertical_Velocity
-2 2 1 1 2 -3 -5 2 -2 -2 -22 -31 -13 -3 1 2 -4 0 5 2 0 -0 -2 -1 -1 -3 -3 -2 -5 -1 -0 -1
3 -1 -0 1 2 3 2 -3 14 -35 -13 11 -8 5 4 7 -2 0 2 -0 -0 2 -2 -2 -4 -4 -2 -2 -3 1 -4 1
0 2 1 3 5 4 -0 -1 -0 -2 -4 -7 13 5 -3 -2 2 3 1 3 -1 -4 -5 -5 -3 -1 1 -0 -1 -6 -2 3
1 1 1 1 -1 -2 -7 -7 -3 2 5 5 -2 -4 2 3 -1 2 0 -5 -5 -2 0 -0 -2 -5 -2 -2 1 -1 -6 -6
1 0 -1 -3 -3 -8 1 9 9 3 -2 -1 -0 11 4 2 -1 0 2 0 3 3 -2 -4 -2 -3 -3 -2 4 -7 -3 -3
-1 0 2 6 5 1 5 -2 -0 0 2 3 1 1 -1 -0 -1 2 0 2 -2 -1 -2 -2 -2 -2 -1 -2 -4 -1 -2 -6
0 4 3 0 2 -1 -1 3 4 3 3 2 -1 -2 -3 3 4 0 2 -1 -0 1 -1 -1 -0 -0 -0 0 1 -4 -4 0
1 -1 0 1 2 1 2 3 3 4 3 0 -1 -1 -1 0 -0 -1 -6 -4 -4 -1 -1 2 -1 0 0 -2 7 -2 6 2
1 1 1 0 1 2 0 6 5 1 3 -0 1 0 2 0 0 -5 -4 -2 -1 -3 -0 -2 -1 0 1 -2 1 5 3 0
2 1 2 3 2 3 1 3 4 1 -3 -3 1 -1 -2 -2 -1 -3 -3 -2 -1 3 -1 -0 1 1 0 -1 6 4 4 2
1 2 -0 2 5 2 1 -0 2 -5 -10 -4 -1 1 0 -4 -4 -1 -1 -1 -1 -2 -4 -3 -1 0 -0 3 5 0 10 -6
1 2 2 4 1 3 -1 -2 -4 -2 -1 -3 -3 1 -4 -5 1 -0 -2 -3 -6 -5 -3 -3 -2 -0 1 -3 -4 -1 1 -3
1 1 0 -2 1 3 -3 -4 -5 -4 -3 -1 3 -4 -2 1 -1 -1 -3 -5 -3 -5 -4 -2 -0 1 -1 -1 -3 -2 -4 0
-0 0 1 3 2 -3 -4 -0 -4 -0 -3 4 -3 -0 1 -0 -1 -5 -4 -5 -5 -2 -2 -5 -1 -1 -1 -3 -1 0 -1 -1
-0 2 3 2 -0 -3 -1 -4 1 2 2 -2 3 1 -1 -2 -3 -3 -4 -3 -2 -0 0 -1 -2 -1 1 -1 -2 -0 -0 -0
0 1 1 1 -1 4 -1 1 2 -2 -2 -1 -0 -3 -1 -1 -2 -3 -2 -2 0 0 -0 -2 -2 -1 -0 -3 -1 -2 -0 -2
-1 1 2 2 1 1 -2 3 -1 -3 0 0 -2 -0 -0 -1 -3 -2 -1 -1 -1 -2 0 -0 -0 4 -3 -3 -1 -2 0 -1
0 1 1 1 2 0 0 -0 -2 -0 0 -2 -0 -1 -2 -2 -1 -1 2 -1 -0 -2 -1 -1 3 7 -2 -2 -2 -0 -1 -1
1 1 1 2 1 1 -0 -2 -0 -2 -3 -1 -1 -3 -2 -2 -1 -0 -0 -1 -1 -1 -2 -1 1 4 -0 -1 -1 -1 -1 -0
Height
1547 1550 1553 1557 1560 1560 1562 1565 1569 1572 1570 1569 1571 1576 1573 1574 1573 1575 1577 1575 1574 1574 1572 1572 1570 1568 1566 1563 1559 1556 1553 1549
1545 1547 1550 1553 1554 1555 1558 1562 1561 1564 1570 1567 1571 1574 1572 1572 1572 1574 1575 1574 1573 1572 1570 1569 1567 1565 1562 1559 1556 1553 1550 1546
1542 1545 1547 1549 1552 1555 1557 1560 1562 1564 1567 1568 1572 1571 1572 1572 1572 1573 1573 1572 1570 1569 1567 1567 1565 1563 1559 1556 1552 1549 1548 1544
1541 1543 1546 1548 1550 1553 1555 1558 1561 1563 1564 1566 1568 1570 1571 1571 1571 1571 1570 1569 1568 1567 1565 1563 1561 1558 1556 1553 1550 1547 1543 1542
1540 1543 1545 1547 1550 1552 1556 1559 1561 1562 1564 1566 1568 1571 1571 1570 1570 1570 1569 1567 1566 1564 1561 1559 1557 1554 1552 1549 1546 1543 1541 1538
1540 1543 1546 1549 1550 1554 1557 1559 1562 1562 1563 1565 1567 1568 1567 1567 1568 1567 1566 1565 1562 1560 1557 1555 1553 1550 1547 1543 1540 1539 1536 1534
1540 1544 1546 1548 1551 1553 1555 1558 1560 1561 1562 1563 1564 1564 1565 1566 1565 1565 1564 1562 1560 1558 1554 1550 1547 1544 1542 1539 1536 1532 1530 1528
1539 1542 1545 1547 1549 1552 1555 1558 1559 1559 1560 1561 1561 1562 1562 1562 1561 1560 1559 1558 1556 1553 1549 1546 1543 1540 1536 1533 1530 1527 1525 1522
1537 1541 1544 1546 1549 1551 1554 1557 1557 1557 1558 1558 1558 1558 1558 1558 1557 1555 1554 1553 1550 1547 1543 1540 1537 1534 1530 1527 1523 1522 1520 1518
1536 1539 1542 1545 1547 1548 1551 1553 1553 1554 1555 1556 1556 1556 1555 1554 1553 1551 1549 1547 1545 1542 1539 1535 1531 1527 1524 1521 1518 1516 1515 1513
1534 1537 1539 1542 1544 1544 1547 1548 1550 1551 1552 1553 1553 1553 1551 1550 1549 1546 1544 1543 1540 1536 1532 1528 1523 1520 1518 1516 1513 1510 1509 1507
1531 1534 1537 1539 1540 1542 1543 1546 1547 1547 1548 1549 1549 1548 1547 1546 1544 1542 1540 1537 1534 1529 1525 1521 1518 1515 1512 1509 1507 1505 1505 1503
1528 1531 1533 1535 1538 1539 1540 1543 1544 1546 1546 1545 1545 1544 1543 1542 1540 1538 1535 1531 1527 1523 1520 1516 1514 1509 1507 1506 1504 1502 1501 1500
1524 1527 1530 1532 1534 1535 1538 1539 1540 1541 1542 1543 1542 1541 1539 1537 1535 1532 1529 1525 1521 1518 1515 1511 1508 1505 1503 1501 1500 1500 1499 1497
1520 1524 1526 1528 1529 1531 1533 1535 1536 1537 1538 1538 1538 1535 1533 1531 1529 1526 1523 1520 1517 1514 1511 1507 1504 1503 1501 1500 1499 1498 1496 1493
1515 1519 1521 1523 1525 1527 1529 1532 1533 1534 1534 1534 1532 1529 1527 1525 1523 1521 1518 1514 1511 1509 1506 1503 1502 1500 1498 1497 1496 1494 1492 1488
1511 1514 1516 1519 1521 1523 1525 1527 1528 1529 1529 1528 1526 1524 1522 1521 1519 1516 1513 1510 1508 1506 1504 1501 1499 1497 1494 1493 1492 1489 1487 1483
1506 1509 1512 1515 1518 1519 1522 1524 1525 1525 1524 1522 1521 1519 1518 1517 1514 1512 1509 1506 1503 1500 1499 1497 1495 1493 1490 1489 1487 1484 1481 1479
1503 1506 1509 1512 1514 1517 1519 1520 1521 1520 1519 1518 1517 1515 1513 1512 1509 1507 1503 1500 1498 1496 1494 1493 1491 1489 1486 1485 1482 1479 1477 1474